Location: Les Moreaux
(47.2278°N, 1.4966°E)
Time: 23:44:16
(UTC+00:00)

CZ-4C R/B - Pass Details

Date: 12 May 2026
Orbit: 409 x 496 km, 98.0° (Epoch: 7 June)

Event Time Altitude Azimuth Distance (km) Brightness Sun altitude
Rises 00:20:42 0° 17° (NNE) 2,430 8.0 -24.3°
Reaches altitude 10° 00:22:43 10° 21° (NNE) 1,571 6.7 -24.3°
Enters shadow 00:25:05 40° 44° (NE) 679 4.1 -24.2°
